contact:dominique.lefevre@mio.osupytheas.fr, maurice.libes@osupytheas.fr, didier.mallarino@osupytheas.fr
Project:EMSO http://www.emso-fr.org/EMSO-France
Depth: 2436.0 m
Title:EMSO Ligure Ouest : Data MII capteur MICROCAT
DateTime_Computer,Latitude,Longitude,Temperature,Conductivity,Pressure,DateTime_Instrument
DateTime_Computer,Latitude,Longitude,degC,S m-1,dbar,DateTime_Instrument
2020-01-28T00:02:45Z,42.805,6.029,13.3008,4.59986,2469.853,2020-1-28T02:03:18Z
2020-01-28T00:05:48Z,42.805,6.029,13.2986,4.60006,2469.876,2020-1-28T02:06:22Z
2020-01-28T00:08:51Z,42.805,6.029,13.2984,4.59980,2469.844,2020-1-28T02:09:25Z
2020-01-28T00:11:54Z,42.805,6.029,13.2990,4.60014,2469.853,2020-1-28T02:12:28Z
2020-01-28T00:14:58Z,42.805,6.029,13.2990,4.59998,2469.853,2020-1-28T02:15:31Z
2020-01-28T00:18:01Z,42.805,6.029,13.3011,4.59987,2469.867,2020-1-28T02:18:34Z
2020-01-28T00:21:04Z,42.805,6.029,13.3013,4.59999,2469.853,2020-1-28T02:21:37Z
2020-01-28T00:24:07Z,42.805,6.029,13.2988,4.60013,2469.853,2020-1-28T02:24:41Z
2020-01-28T00:27:10Z,42.805,6.029,13.3012,4.60009,2469.783,2020-1-28T02:27:44Z
2020-01-28T00:30:14Z,42.805,6.029,13.2982,4.59991,2469.806,2020-1-28T02:30:47Z
2020-01-28T00:33:17Z,42.805,6.029,13.3001,4.59995,2469.876,2020-1-28T02:33:50Z
2020-01-28T00:36:20Z,42.805,6.029,13.3006,4.60004,2469.83,2020-1-28T02:36:53Z
2020-01-28T00:39:23Z,42.805,6.029,13.3019,4.60000,2469.844,2020-1-28T02:39:57Z
2020-01-28T00:42:26Z,42.805,6.029,13.3019,4.60011,2469.83,2020-1-28T02:43:00Z
2020-01-28T00:45:30Z,42.805,6.029,13.2989,4.60006,2469.821,2020-1-28T02:46:03Z
2020-01-28T00:48:33Z,42.805,6.029,13.2995,4.59998,2469.867,2020-1-28T02:49:06Z
2020-01-28T00:51:36Z,42.805,6.029,13.2986,4.60030,2469.844,2020-1-28T02:52:09Z
2020-01-28T00:54:39Z,42.805,6.029,13.3020,4.59996,2469.867,2020-1-28T02:55:13Z
2020-01-28T00:57:43Z,42.805,6.029,13.3009,4.59981,2469.844,2020-1-28T02:58:16Z
2020-01-28T01:00:46Z,42.805,6.029,13.3000,4.60005,2469.83,2020-1-28T03:01:19Z
2020-01-28T01:03:49Z,42.805,6.029,13.3004,4.60024,2469.816,2020-1-28T03:04:22Z
2020-01-28T01:06:52Z,42.805,6.029,13.3000,4.60020,2469.844,2020-1-28T03:07:26Z
2020-01-28T01:09:55Z,42.805,6.029,13.3017,4.59993,2469.83,2020-1-28T03:10:29Z
2020-01-28T01:12:59Z,42.805,6.029,13.2999,4.59991,2469.83,2020-1-28T03:13:32Z
2020-01-28T01:16:02Z,42.805,6.029,13.2999,4.59995,2469.867,2020-1-28T03:16:35Z
2020-01-28T01:19:05Z,42.805,6.029,13.2989,4.60003,2469.83,2020-1-28T03:19:38Z
2020-01-28T01:22:08Z,42.805,6.029,13.2983,4.60001,2469.806,2020-1-28T03:22:42Z
2020-01-28T01:25:11Z,42.805,6.029,13.2992,4.60001,2469.806,2020-1-28T03:25:45Z
2020-01-28T01:28:14Z,42.805,6.029,13.2993,4.60013,2469.844,2020-1-28T03:28:48Z
2020-01-28T01:31:18Z,42.805,6.029,13.2978,4.59984,2469.83,2020-1-28T03:31:51Z
2020-01-28T01:34:21Z,42.805,6.029,13.2988,4.60006,2469.793,2020-1-28T03:34:54Z
2020-01-28T01:37:24Z,42.805,6.029,13.2998,4.60011,2469.821,2020-1-28T03:37:57Z
2020-01-28T01:40:27Z,42.805,6.029,13.3000,4.60016,2469.89,2020-1-28T03:41:01Z
2020-01-28T01:43:30Z,42.805,6.029,13.2996,4.59989,2469.806,2020-1-28T03:44:04Z
2020-01-28T01:46:34Z,42.805,6.029,13.2980,4.59978,2469.783,2020-1-28T03:47:07Z
2020-01-28T01:49:37Z,42.805,6.029,13.2989,4.60007,2469.783,2020-1-28T03:50:10Z
2020-01-28T01:52:40Z,42.805,6.029,13.2982,4.60006,2469.797,2020-1-28T03:53:13Z
2020-01-28T01:55:43Z,42.805,6.029,13.2996,4.60010,2469.844,2020-1-28T03:56:17Z
2020-01-28T01:58:46Z,42.805,6.029,13.3003,4.59991,2469.806,2020-1-28T03:59:20Z
2020-01-28T02:01:50Z,42.805,6.029,13.2991,4.60013,2469.797,2020-1-28T04:02:23Z
2020-01-28T02:04:53Z,42.805,6.029,13.2976,4.59996,2469.806,2020-1-28T04:05:26Z
2020-01-28T02:07:56Z,42.805,6.029,13.2994,4.60024,2469.83,2020-1-28T04:08:30Z
2020-01-28T02:10:59Z,42.805,6.029,13.2982,4.59977,2469.83,2020-1-28T04:11:33Z
2020-01-28T02:14:02Z,42.805,6.029,13.2997,4.59991,2469.797,2020-1-28T04:14:36Z
2020-01-28T02:17:06Z,42.805,6.029,13.3002,4.59999,2469.844,2020-1-28T04:17:39Z
2020-01-28T02:20:09Z,42.805,6.029,13.3006,4.60005,2469.783,2020-1-28T04:20:42Z
2020-01-28T02:23:12Z,42.805,6.029,13.2992,4.60011,2469.821,2020-1-28T04:23:45Z
2020-01-28T02:26:15Z,42.805,6.029,13.2983,4.60010,2469.821,2020-1-28T04:26:49Z
2020-01-28T02:29:18Z,42.805,6.029,13.2990,4.60008,2469.797,2020-1-28T04:29:52Z
2020-01-28T02:32:21Z,42.805,6.029,13.3000,4.60016,2469.806,2020-1-28T04:32:55Z
2020-01-28T02:35:25Z,42.805,6.029,13.3014,4.60012,2469.797,2020-1-28T04:35:58Z
2020-01-28T02:38:28Z,42.805,6.029,13.2999,4.59993,2469.797,2020-1-28T04:39:01Z
2020-01-28T02:41:31Z,42.805,6.029,13.3006,4.59993,2469.76,2020-1-28T04:42:04Z
2020-01-28T02:44:34Z,42.805,6.029,13.2979,4.59997,2469.797,2020-1-28T04:45:08Z
2020-01-28T02:47:37Z,42.805,6.029,13.2998,4.59980,2469.83,2020-1-28T04:48:11Z
2020-01-28T02:50:41Z,42.805,6.029,13.2986,4.60006,2469.806,2020-1-28T04:51:14Z
2020-01-28T02:53:44Z,42.805,6.029,13.2996,4.59999,2469.783,2020-1-28T04:54:17Z
2020-01-28T02:56:47Z,42.805,6.029,13.2989,4.59979,2469.76,2020-1-28T04:57:21Z
2020-01-28T02:59:50Z,42.805,6.029,13.2998,4.59976,2469.821,2020-1-28T05:00:24Z
2020-01-28T03:02:53Z,42.805,6.029,13.2983,4.59988,2469.806,2020-1-28T05:03:27Z
2020-01-28T03:05:57Z,42.805,6.029,13.2992,4.60002,2469.821,2020-1-28T05:06:30Z
2020-01-28T03:09:00Z,42.805,6.029,13.3013,4.59990,2469.797,2020-1-28T05:09:33Z
2020-01-28T03:12:03Z,42.805,6.029,13.2978,4.59985,2469.844,2020-1-28T05:12:36Z
2020-01-28T03:15:06Z,42.805,6.029,13.2973,4.59994,2469.783,2020-1-28T05:15:40Z
2020-01-28T03:18:09Z,42.805,6.029,13.2982,4.59980,2469.806,2020-1-28T05:18:43Z
2020-01-28T03:21:12Z,42.805,6.029,13.2993,4.59980,2469.806,2020-1-28T05:21:46Z
2020-01-28T03:24:16Z,42.805,6.029,13.2975,4.59982,2469.853,2020-1-28T05:24:49Z
2020-01-28T03:27:19Z,42.805,6.029,13.2979,4.59988,2469.806,2020-1-28T05:27:52Z
2020-01-28T03:30:22Z,42.805,6.029,13.2980,4.59979,2469.806,2020-1-28T05:30:55Z
2020-01-28T03:33:25Z,42.805,6.029,13.2983,4.59986,2469.821,2020-1-28T05:33:59Z
2020-01-28T03:36:28Z,42.805,6.029,13.2976,4.59978,2469.806,2020-1-28T05:37:02Z
2020-01-28T03:39:32Z,42.805,6.029,13.2982,4.59975,2469.806,2020-1-28T05:40:05Z
2020-01-28T03:42:35Z,42.805,6.029,13.2987,4.59983,2469.844,2020-1-28T05:43:08Z
2020-01-28T03:45:38Z,42.805,6.029,13.2979,4.59984,2469.797,2020-1-28T05:46:11Z
2020-01-28T03:48:41Z,42.805,6.029,13.2986,4.59978,2469.806,2020-1-28T05:49:15Z
2020-01-28T03:51:44Z,42.805,6.029,13.2987,4.59981,2469.806,2020-1-28T05:52:18Z
2020-01-28T03:54:48Z,42.805,6.029,13.2981,4.60011,2469.821,2020-1-28T05:55:21Z
2020-01-28T03:57:51Z,42.805,6.029,13.2984,4.59986,2469.806,2020-1-28T05:58:24Z
2020-01-28T04:00:54Z,42.805,6.029,13.2976,4.59989,2469.83,2020-1-28T06:01:27Z
2020-01-28T04:03:57Z,42.805,6.029,13.2984,4.59981,2469.806,2020-1-28T06:04:31Z
2020-01-28T04:07:00Z,42.805,6.029,13.2979,4.59983,2469.806,2020-1-28T06:07:34Z
2020-01-28T04:10:03Z,42.805,6.029,13.2977,4.60001,2469.806,2020-1-28T06:10:37Z
2020-01-28T04:13:07Z,42.805,6.029,13.2990,4.59981,2469.821,2020-1-28T06:13:40Z
2020-01-28T04:16:10Z,42.805,6.029,13.2988,4.59982,2469.83,2020-1-28T06:16:43Z
2020-01-28T04:19:13Z,42.805,6.029,13.2980,4.59978,2469.783,2020-1-28T06:19:46Z
2020-01-28T04:22:16Z,42.805,6.029,13.2989,4.59978,2469.844,2020-1-28T06:22:50Z
2020-01-28T04:25:19Z,42.805,6.029,13.2986,4.59982,2469.783,2020-1-28T06:25:53Z
2020-01-28T04:28:23Z,42.805,6.029,13.2991,4.59977,2469.806,2020-1-28T06:28:56Z
2020-01-28T04:31:26Z,42.805,6.029,13.2985,4.59979,2469.806,2020-1-28T06:31:59Z
2020-01-28T04:34:29Z,42.805,6.029,13.2976,4.59981,2469.844,2020-1-28T06:35:02Z
2020-01-28T04:37:32Z,42.805,6.029,13.2979,4.59980,2469.821,2020-1-28T06:38:06Z
2020-01-28T04:40:35Z,42.805,6.029,13.2982,4.59982,2469.83,2020-1-28T06:41:09Z
2020-01-28T04:43:38Z,42.805,6.029,13.2984,4.59978,2469.83,2020-1-28T06:44:12Z
2020-01-28T04:46:42Z,42.805,6.029,13.2982,4.59975,2469.806,2020-1-28T06:47:15Z
2020-01-28T04:49:45Z,42.805,6.029,13.2980,4.59978,2469.821,2020-1-28T06:50:18Z
2020-01-28T04:52:48Z,42.805,6.029,13.2985,4.59978,2469.806,2020-1-28T06:53:22Z
2020-01-28T04:55:51Z,42.805,6.029,13.2979,4.59979,2469.83,2020-1-28T06:56:25Z
2020-01-28T04:58:55Z,42.805,6.029,13.2985,4.59976,2469.806,2020-1-28T06:59:28Z
2020-01-28T05:01:58Z,42.805,6.029,13.2981,4.59978,2469.853,2020-1-28T07:02:31Z
2020-01-28T05:05:01Z,42.805,6.029,13.2982,4.59974,2469.853,2020-1-28T07:05:34Z
2020-01-28T05:08:05Z,42.805,6.029,13.2978,4.59981,2469.853,2020-1-28T07:08:38Z
2020-01-28T05:11:08Z,42.805,6.029,13.2982,4.59976,2469.83,2020-1-28T07:11:41Z
2020-01-28T05:14:11Z,42.805,6.029,13.2979,4.59974,2469.83,2020-1-28T07:14:45Z
2020-01-28T05:17:14Z,42.805,6.029,13.2982,4.59976,2469.844,2020-1-28T07:17:48Z
2020-01-28T05:20:17Z,42.805,6.029,13.2976,4.59981,2469.83,2020-1-28T07:20:51Z
2020-01-28T05:23:21Z,42.805,6.029,13.2976,4.59972,2469.83,2020-1-28T07:23:54Z
2020-01-28T05:26:24Z,42.805,6.029,13.2983,4.59986,2469.806,2020-1-28T07:26:57Z
2020-01-28T05:29:27Z,42.805,6.029,13.2985,4.59983,2469.867,2020-1-28T07:30:01Z
2020-01-28T05:32:30Z,42.805,6.029,13.2982,4.59979,2469.821,2020-1-28T07:33:04Z
2020-01-28T05:35:33Z,42.805,6.029,13.2983,4.59974,2469.867,2020-1-28T07:36:07Z
2020-01-28T05:38:37Z,42.805,6.029,13.2979,4.59981,2469.853,2020-1-28T07:39:10Z
2020-01-28T05:41:40Z,42.805,6.029,13.2980,4.59971,2469.83,2020-1-28T07:42:13Z
2020-01-28T05:44:43Z,42.805,6.029,13.2980,4.59980,2469.876,2020-1-28T07:45:16Z
2020-01-28T05:47:46Z,42.805,6.029,13.2981,4.59977,2469.867,2020-1-28T07:48:20Z
2020-01-28T05:50:49Z,42.805,6.029,13.2981,4.59975,2469.9,2020-1-28T07:51:23Z
2020-01-28T05:53:52Z,42.805,6.029,13.2980,4.59979,2469.853,2020-1-28T07:54:26Z
2020-01-28T05:56:56Z,42.805,6.029,13.2982,4.59978,2469.914,2020-1-28T07:57:29Z
2020-01-28T05:59:59Z,42.805,6.029,13.2985,4.59984,2469.914,2020-1-28T08:00:32Z
2020-01-28T06:03:02Z,42.805,6.029,13.2981,4.59979,2469.867,2020-1-28T08:03:35Z
2020-01-28T06:06:05Z,42.805,6.029,13.2982,4.59978,2469.853,2020-1-28T08:06:39Z
2020-01-28T06:09:08Z,42.805,6.029,13.2986,4.59976,2469.89,2020-1-28T08:09:42Z
2020-01-28T06:12:12Z,42.805,6.029,13.2982,4.59978,2469.89,2020-1-28T08:12:45Z
2020-01-28T06:15:15Z,42.805,6.029,13.2981,4.59978,2469.876,2020-1-28T08:15:48Z
2020-01-28T06:18:18Z,42.805,6.029,13.2976,4.59980,2469.876,2020-1-28T08:18:52Z
2020-01-28T06:21:21Z,42.805,6.029,13.2979,4.59978,2469.89,2020-1-28T08:21:55Z
2020-01-28T06:24:24Z,42.805,6.029,13.2981,4.59976,2469.876,2020-1-28T08:24:58Z
2020-01-28T06:27:28Z,42.805,6.029,13.2987,4.59978,2469.9,2020-1-28T08:28:01Z
2020-01-28T06:30:31Z,42.805,6.029,13.2992,4.59994,2469.923,2020-1-28T08:31:04Z
2020-01-28T06:33:34Z,42.805,6.029,13.2979,4.59981,2469.923,2020-1-28T08:34:08Z
2020-01-28T06:36:37Z,42.805,6.029,13.2984,4.59971,2469.9,2020-1-28T08:37:11Z
2020-01-28T06:39:41Z,42.805,6.029,13.2975,4.59976,2469.9,2020-1-28T08:40:14Z
2020-01-28T06:42:44Z,42.805,6.029,13.2983,4.59984,2469.923,2020-1-28T08:43:17Z
2020-01-28T06:45:47Z,42.805,6.029,13.2979,4.59975,2469.947,2020-1-28T08:46:20Z
2020-01-28T06:48:50Z,42.805,6.029,13.2978,4.59979,2469.923,2020-1-28T08:49:23Z
2020-01-28T06:51:53Z,42.805,6.029,13.2983,4.59978,2469.923,2020-1-28T08:52:27Z
2020-01-28T06:54:57Z,42.805,6.029,13.2990,4.59983,2469.96,2020-1-28T08:55:30Z
2020-01-28T06:58:00Z,42.805,6.029,13.2977,4.59983,2469.947,2020-1-28T08:58:33Z
2020-01-28T07:01:03Z,42.805,6.029,13.2987,4.59978,2469.947,2020-1-28T09:01:37Z
2020-01-28T07:04:06Z,42.805,6.029,13.2977,4.59976,2469.923,2020-1-28T09:04:40Z
2020-01-28T07:07:09Z,42.805,6.029,13.2979,4.59976,2469.984,2020-1-28T09:07:43Z
2020-01-28T07:10:13Z,42.805,6.029,13.2980,4.59976,2469.947,2020-1-28T09:10:46Z
2020-01-28T07:13:16Z,42.805,6.029,13.2977,4.59980,2469.96,2020-1-28T09:13:49Z
2020-01-28T07:16:19Z,42.805,6.029,13.2982,4.59982,2469.984,2020-1-28T09:16:53Z
2020-01-28T07:19:23Z,42.805,6.029,13.2979,4.59973,2469.97,2020-1-28T09:19:56Z
2020-01-28T07:22:26Z,42.805,6.029,13.2976,4.59973,2469.993,2020-1-28T09:22:59Z
2020-01-28T07:25:29Z,42.805,6.029,13.2980,4.59971,2470.007,2020-1-28T09:26:02Z
2020-01-28T07:28:32Z,42.805,6.029,13.2984,4.59989,2469.984,2020-1-28T09:29:06Z
2020-01-28T07:31:35Z,42.805,6.029,13.2982,4.59981,2470.03,2020-1-28T09:32:09Z
2020-01-28T07:34:38Z,42.805,6.029,13.2987,4.59986,2470.007,2020-1-28T09:35:12Z
2020-01-28T07:37:42Z,42.805,6.029,13.2986,4.59984,2470.007,2020-1-28T09:38:15Z
2020-01-28T07:40:45Z,42.805,6.029,13.2982,4.59981,2470.007,2020-1-28T09:41:19Z
2020-01-28T07:43:48Z,42.805,6.029,13.2981,4.59976,2469.993,2020-1-28T09:44:22Z
2020-01-28T07:46:52Z,42.805,6.029,13.2988,4.59982,2470.03,2020-1-28T09:47:25Z
2020-01-28T07:49:55Z,42.805,6.029,13.2987,4.59978,2469.993,2020-1-28T09:50:28Z
2020-01-28T07:52:58Z,42.805,6.029,13.2979,4.59976,2470.04,2020-1-28T09:53:31Z
2020-01-28T07:56:01Z,42.805,6.029,13.2982,4.59981,2470.03,2020-1-28T09:56:35Z
2020-01-28T07:59:04Z,42.805,6.029,13.2983,4.59982,2470.053,2020-1-28T09:59:38Z
2020-01-28T08:02:08Z,42.805,6.029,13.2975,4.59982,2470.03,2020-1-28T10:02:41Z
2020-01-28T08:05:11Z,42.805,6.029,13.2983,4.59976,2470.007,2020-1-28T10:05:44Z
2020-01-28T08:08:14Z,42.805,6.029,13.2979,4.59971,2470.017,2020-1-28T10:08:47Z
2020-01-28T08:11:17Z,42.805,6.029,13.2982,4.59984,2470.03,2020-1-28T10:11:51Z
2020-01-28T08:14:20Z,42.805,6.029,13.2979,4.59986,2470.03,2020-1-28T10:14:54Z
2020-01-28T08:17:24Z,42.805,6.029,13.2987,4.59978,2470.007,2020-1-28T10:17:57Z
2020-01-28T08:20:27Z,42.805,6.029,13.2983,4.59982,2470.077,2020-1-28T10:21:00Z
2020-01-28T08:23:30Z,42.805,6.029,13.2993,4.59987,2470.053,2020-1-28T10:24:03Z
2020-01-28T08:26:33Z,42.805,6.029,13.2986,4.59982,2470.053,2020-1-28T10:27:07Z
2020-01-28T08:29:36Z,42.805,6.029,13.2991,4.59983,2470.063,2020-1-28T10:30:10Z
2020-01-28T08:32:39Z,42.805,6.029,13.2987,4.59988,2470.017,2020-1-28T10:33:13Z
2020-01-28T08:35:43Z,42.805,6.029,13.2984,4.59984,2470.04,2020-1-28T10:36:16Z
2020-01-28T08:38:46Z,42.805,6.029,13.2986,4.59975,2470.017,2020-1-28T10:39:19Z
2020-01-28T08:41:49Z,42.805,6.029,13.2980,4.59980,2470.017,2020-1-28T10:42:23Z
2020-01-28T08:44:52Z,42.805,6.029,13.2979,4.59981,2470.04,2020-1-28T10:45:26Z
2020-01-28T08:47:56Z,42.805,6.029,13.2982,4.59984,2470.053,2020-1-28T10:48:29Z
2020-01-28T08:50:59Z,42.805,6.029,13.2983,4.59982,2470.04,2020-1-28T10:51:33Z
2020-01-28T08:54:02Z,42.805,6.029,13.2982,4.59983,2470.063,2020-1-28T10:54:36Z
2020-01-28T08:57:06Z,42.805,6.029,13.2983,4.59976,2470.063,2020-1-28T10:57:39Z
2020-01-28T09:00:09Z,42.805,6.029,13.2982,4.59974,2470.04,2020-1-28T11:00:42Z
2020-01-28T09:03:12Z,42.805,6.029,13.2990,4.59978,2470.053,2020-1-28T11:03:46Z
2020-01-28T09:06:15Z,42.805,6.029,13.2982,4.59980,2470.04,2020-1-28T11:06:49Z
2020-01-28T09:09:18Z,42.805,6.029,13.2984,4.59994,2470.077,2020-1-28T11:09:52Z
2020-01-28T09:12:22Z,42.805,6.029,13.2983,4.59984,2470.053,2020-1-28T11:12:55Z
2020-01-28T09:15:25Z,42.805,6.029,13.2988,4.59988,2470.063,2020-1-28T11:15:58Z
2020-01-28T09:18:28Z,42.805,6.029,13.3000,4.59989,2470.063,2020-1-28T11:19:02Z
2020-01-28T09:21:31Z,42.805,6.029,13.2992,4.59981,2470.063,2020-1-28T11:22:05Z
2020-01-28T09:24:35Z,42.805,6.029,13.2984,4.59991,2470.063,2020-1-28T11:25:08Z
2020-01-28T09:27:38Z,42.805,6.029,13.2989,4.59989,2470.077,2020-1-28T11:28:11Z
2020-01-28T09:30:41Z,42.805,6.029,13.2991,4.59987,2470.04,2020-1-28T11:31:15Z
2020-01-28T09:33:44Z,42.805,6.029,13.2979,4.59986,2470.04,2020-1-28T11:34:18Z
2020-01-28T09:36:48Z,42.805,6.029,13.2987,4.59983,2470.053,2020-1-28T11:37:21Z
2020-01-28T09:39:51Z,42.805,6.029,13.2986,4.59993,2470.063,2020-1-28T11:40:24Z
2020-01-28T09:42:54Z,42.805,6.029,13.2994,4.59990,2470.04,2020-1-28T11:43:27Z
2020-01-28T09:45:57Z,42.805,6.029,13.2984,4.59981,2470.053,2020-1-28T11:46:31Z
2020-01-28T09:49:00Z,42.805,6.029,13.2994,4.59993,2470.04,2020-1-28T11:49:34Z
2020-01-28T09:52:04Z,42.805,6.029,13.2994,4.59988,2470.04,2020-1-28T11:52:37Z
2020-01-28T09:55:07Z,42.805,6.029,13.2976,4.59976,2470.053,2020-1-28T11:55:40Z
2020-01-28T09:58:10Z,42.805,6.029,13.2989,4.59986,2470.04,2020-1-28T11:58:43Z
2020-01-28T10:01:13Z,42.805,6.029,13.2981,4.59984,2470.053,2020-1-28T12:01:47Z
2020-01-28T10:04:16Z,42.805,6.029,13.2987,4.59986,2470.04,2020-1-28T12:04:50Z
2020-01-28T10:07:19Z,42.805,6.029,13.2988,4.59990,2470.077,2020-1-28T12:07:53Z
2020-01-28T10:10:23Z,42.805,6.029,13.2996,4.59978,2470.053,2020-1-28T12:10:56Z
2020-01-28T10:13:26Z,42.805,6.029,13.2995,4.59995,2470.063,2020-1-28T12:13:59Z
2020-01-28T10:16:29Z,42.805,6.029,13.3002,4.59985,2470.04,2020-1-28T12:17:03Z
2020-01-28T10:19:32Z,42.805,6.029,13.3005,4.59993,2470.053,2020-1-28T12:20:06Z
2020-01-28T10:22:35Z,42.805,6.029,13.2998,4.59993,2470.1,2020-1-28T12:23:09Z
2020-01-28T10:25:39Z,42.805,6.029,13.3013,4.59997,2470.063,2020-1-28T12:26:12Z
2020-01-28T10:28:42Z,42.805,6.029,13.3004,4.59981,2470.053,2020-1-28T12:29:15Z
2020-01-28T10:31:45Z,42.805,6.029,13.2994,4.59979,2470.017,2020-1-28T12:32:19Z
2020-01-28T10:34:48Z,42.805,6.029,13.2985,4.59986,2470.03,2020-1-28T12:35:22Z
2020-01-28T10:37:51Z,42.805,6.029,13.2995,4.59999,2470.049,2020-1-28T12:38:25Z
2020-01-28T10:40:55Z,42.805,6.029,13.2992,4.59987,2470.017,2020-1-28T12:41:28Z
2020-01-28T10:43:58Z,42.805,6.029,13.3000,4.59983,2470.04,2020-1-28T12:44:31Z
2020-01-28T10:47:01Z,42.805,6.029,13.2990,4.59989,2470.03,2020-1-28T12:47:35Z
2020-01-28T10:50:04Z,42.805,6.029,13.2990,4.59986,2470.053,2020-1-28T12:50:38Z
2020-01-28T10:53:07Z,42.805,6.029,13.2998,4.59984,2470.077,2020-1-28T12:53:41Z
2020-01-28T10:56:11Z,42.805,6.029,13.2992,4.59995,2470.063,2020-1-28T12:56:44Z
2020-01-28T10:59:14Z,42.805,6.029,13.2993,4.59986,2470.053,2020-1-28T12:59:48Z
2020-01-28T11:02:17Z,42.805,6.029,13.3020,4.59983,2469.993,2020-1-28T13:02:51Z
2020-01-28T11:05:20Z,42.805,6.029,13.3001,4.59986,2470.017,2020-1-28T13:05:54Z
2020-01-28T11:08:24Z,42.805,6.029,13.2993,4.59992,2470.053,2020-1-28T13:08:57Z
2020-01-28T11:11:27Z,42.805,6.029,13.3014,4.59984,2469.993,2020-1-28T13:12:00Z
2020-01-28T11:14:30Z,42.805,6.029,13.2983,4.59991,2470.017,2020-1-28T13:15:03Z
2020-01-28T11:17:33Z,42.805,6.029,13.2996,4.59990,2470.03,2020-1-28T13:18:07Z
2020-01-28T11:20:36Z,42.805,6.029,13.3006,4.59992,2470.007,2020-1-28T13:21:10Z
2020-01-28T11:23:39Z,42.805,6.029,13.3004,4.59988,2470.03,2020-1-28T13:24:13Z
2020-01-28T11:26:43Z,42.805,6.029,13.2993,4.59994,2470.017,2020-1-28T13:27:16Z
2020-01-28T11:29:46Z,42.805,6.029,13.2986,4.60008,2470.017,2020-1-28T13:30:19Z
2020-01-28T11:32:49Z,42.805,6.029,13.2985,4.59982,2469.993,2020-1-28T13:33:23Z
2020-01-28T11:35:52Z,42.805,6.029,13.2988,4.59991,2470.03,2020-1-28T13:36:26Z
2020-01-28T11:38:55Z,42.805,6.029,13.2991,4.60010,2469.993,2020-1-28T13:39:29Z
2020-01-28T11:41:59Z,42.805,6.029,13.3011,4.59983,2469.97,2020-1-28T13:42:32Z
2020-01-28T11:45:02Z,42.805,6.029,13.2993,4.59995,2469.97,2020-1-28T13:45:35Z
2020-01-28T11:48:05Z,42.805,6.029,13.2999,4.59985,2469.984,2020-1-28T13:48:39Z
2020-01-28T11:51:08Z,42.805,6.029,13.3001,4.59992,2470.007,2020-1-28T13:51:42Z
2020-01-28T11:54:11Z,42.805,6.029,13.3001,4.59994,2470.007,2020-1-28T13:54:45Z
2020-01-28T11:57:15Z,42.805,6.029,13.3012,4.59998,2469.96,2020-1-28T13:57:48Z
2020-01-28T12:00:18Z,42.805,6.029,13.2992,4.60000,2469.984,2020-1-28T14:00:51Z
2020-01-28T12:03:21Z,42.805,6.029,13.2984,4.59980,2469.984,2020-1-28T14:03:54Z
2020-01-28T12:06:24Z,42.805,6.029,13.2993,4.59976,2469.984,2020-1-28T14:06:58Z
2020-01-28T12:09:27Z,42.805,6.029,13.3001,4.59989,2469.96,2020-1-28T14:10:01Z
2020-01-28T12:12:31Z,42.805,6.029,13.2993,4.59986,2469.984,2020-1-28T14:13:04Z
2020-01-28T12:15:34Z,42.805,6.029,13.2998,4.59996,2469.97,2020-1-28T14:16:07Z
2020-01-28T12:18:37Z,42.805,6.029,13.3004,4.59996,2469.947,2020-1-28T14:19:11Z
2020-01-28T12:21:40Z,42.805,6.029,13.2983,4.60002,2469.984,2020-1-28T14:22:14Z
2020-01-28T12:24:43Z,42.805,6.029,13.2986,4.59987,2469.96,2020-1-28T14:25:17Z
2020-01-28T12:27:47Z,42.805,6.029,13.2996,4.59988,2469.984,2020-1-28T14:28:20Z
2020-01-28T12:30:50Z,42.805,6.029,13.2999,4.59987,2469.984,2020-1-28T14:31:23Z
2020-01-28T12:33:53Z,42.805,6.029,13.2995,4.59996,2469.96,2020-1-28T14:34:27Z
2020-01-28T12:36:56Z,42.805,6.029,13.2982,4.59997,2469.96,2020-1-28T14:37:30Z
2020-01-28T12:40:00Z,42.805,6.029,13.2992,4.59996,2469.97,2020-1-28T14:40:33Z
2020-01-28T12:43:03Z,42.805,6.029,13.3024,4.59991,2469.96,2020-1-28T14:43:36Z
2020-01-28T12:46:06Z,42.805,6.029,13.2986,4.59986,2469.984,2020-1-28T14:46:39Z
2020-01-28T12:49:09Z,42.805,6.029,13.2990,4.59994,2469.937,2020-1-28T14:49:43Z
2020-01-28T12:52:12Z,42.805,6.029,13.2998,4.59999,2469.97,2020-1-28T14:52:46Z
2020-01-28T12:55:15Z,42.805,6.029,13.2991,4.59999,2469.937,2020-1-28T14:55:49Z
2020-01-28T12:58:19Z,42.805,6.029,13.3003,4.59999,2469.947,2020-1-28T14:58:52Z
2020-01-28T13:01:22Z,42.805,6.029,13.2982,4.60003,2469.947,2020-1-28T15:01:56Z
2020-01-28T13:04:25Z,42.805,6.029,13.2992,4.60003,2469.937,2020-1-28T15:04:59Z
2020-01-28T13:07:29Z,42.805,6.029,13.2981,4.59993,2469.96,2020-1-28T15:08:02Z
2020-01-28T13:10:32Z,42.805,6.029,13.2971,4.59994,2469.923,2020-1-28T15:11:05Z
2020-01-28T13:13:35Z,42.805,6.029,13.2982,4.59983,2469.923,2020-1-28T15:14:08Z
2020-01-28T13:16:38Z,42.805,6.029,13.2989,4.59987,2469.947,2020-1-28T15:17:12Z
2020-01-28T13:19:41Z,42.805,6.029,13.2989,4.59979,2469.9,2020-1-28T15:20:15Z
2020-01-28T13:22:45Z,42.805,6.029,13.2973,4.59989,2469.9,2020-1-28T15:23:18Z
2020-01-28T13:25:48Z,42.805,6.029,13.2990,4.59988,2469.937,2020-1-28T15:26:21Z
2020-01-28T13:28:51Z,42.805,6.029,13.2978,4.59986,2469.937,2020-1-28T15:29:25Z
2020-01-28T13:31:54Z,42.805,6.029,13.2990,4.59989,2469.937,2020-1-28T15:32:28Z
2020-01-28T13:34:58Z,42.805,6.029,13.2979,4.59996,2469.937,2020-1-28T15:35:31Z
2020-01-28T13:38:01Z,42.805,6.029,13.2998,4.60000,2469.937,2020-1-28T15:38:34Z
2020-01-28T13:41:04Z,42.805,6.029,13.3014,4.59997,2469.937,2020-1-28T15:41:37Z
2020-01-28T13:44:07Z,42.805,6.029,13.2993,4.59996,2469.89,2020-1-28T15:44:41Z
2020-01-28T13:47:10Z,42.805,6.029,13.2989,4.59988,2469.923,2020-1-28T15:47:44Z
2020-01-28T13:50:13Z,42.805,6.029,13.2989,4.59984,2469.89,2020-1-28T15:50:47Z
2020-01-28T13:53:17Z,42.805,6.029,13.2984,4.59987,2469.914,2020-1-28T15:53:50Z
2020-01-28T13:56:20Z,42.805,6.029,13.2983,4.59990,2469.914,2020-1-28T15:56:53Z
2020-01-28T13:59:23Z,42.805,6.029,13.2991,4.59994,2469.923,2020-1-28T15:59:57Z
2020-01-28T14:02:26Z,42.805,6.029,13.2991,4.59991,2469.9,2020-1-28T16:03:00Z
2020-01-28T14:05:29Z,42.805,6.029,13.2998,4.59993,2469.9,2020-1-28T16:06:03Z
2020-01-28T14:08:33Z,42.805,6.029,13.2998,4.59983,2469.9,2020-1-28T16:09:06Z
2020-01-28T14:11:36Z,42.805,6.029,13.2991,4.59993,2469.9,2020-1-28T16:12:10Z
2020-01-28T14:14:39Z,42.805,6.029,13.3017,4.59991,2469.937,2020-1-28T16:15:13Z
2020-01-28T14:17:43Z,42.805,6.029,13.2996,4.59986,2469.9,2020-1-28T16:18:16Z
2020-01-28T14:20:46Z,42.805,6.029,13.2998,4.59991,2469.867,2020-1-28T16:21:19Z
2020-01-28T14:23:49Z,42.805,6.029,13.3014,4.59983,2469.876,2020-1-28T16:24:23Z
2020-01-28T14:26:52Z,42.805,6.029,13.2997,4.60004,2469.9,2020-1-28T16:27:26Z
2020-01-28T14:29:55Z,42.805,6.029,13.2995,4.59992,2469.9,2020-1-28T16:30:29Z
2020-01-28T14:32:59Z,42.805,6.029,13.3004,4.59994,2469.937,2020-1-28T16:33:32Z
2020-01-28T14:36:02Z,42.805,6.029,13.3013,4.59995,2469.9,2020-1-28T16:36:35Z
2020-01-28T14:39:05Z,42.805,6.029,13.2996,4.59982,2469.876,2020-1-28T16:39:38Z
2020-01-28T14:42:08Z,42.805,6.029,13.2990,4.59988,2469.876,2020-1-28T16:42:42Z
2020-01-28T14:45:11Z,42.805,6.029,13.2994,4.59991,2469.876,2020-1-28T16:45:45Z
2020-01-28T14:48:15Z,42.805,6.029,13.2984,4.59992,2469.89,2020-1-28T16:48:48Z
2020-01-28T14:51:18Z,42.805,6.029,13.2988,4.59995,2469.853,2020-1-28T16:51:51Z
2020-01-28T14:54:21Z,42.805,6.029,13.2989,4.59986,2469.89,2020-1-28T16:54:54Z
2020-01-28T14:57:24Z,42.805,6.029,13.2994,4.60001,2469.923,2020-1-28T16:57:58Z
2020-01-28T15:00:28Z,42.805,6.029,13.2991,4.59991,2469.89,2020-1-28T17:01:01Z
2020-01-28T15:03:31Z,42.805,6.029,13.2997,4.59993,2469.89,2020-1-28T17:04:04Z
2020-01-28T15:06:34Z,42.805,6.029,13.2996,4.59999,2469.876,2020-1-28T17:07:08Z
2020-01-28T15:09:37Z,42.805,6.029,13.2992,4.59996,2469.914,2020-1-28T17:10:11Z
2020-01-28T15:12:41Z,42.805,6.029,13.2995,4.60002,2469.867,2020-1-28T17:13:14Z
2020-01-28T15:15:44Z,42.805,6.029,13.2991,4.59990,2469.89,2020-1-28T17:16:17Z